Change the Weather History Date:

Tuesday, January 22, 2013

  Actual Average (KESN) Record (KESN)
Temperature  
Mean Temperature 29 °F -  
Max Temperature 35 °F 45 °F 62 °F (1973)
Min Temperature 23 °F 26 °F 8 °F (1970)
Degree Days  
Heating Degree Days 36    
Moisture  
Dew Point 7 °F    
Average Humidity 45    
Maximum Humidity 60    
Minimum Humidity 34    
Precipitation  
Precipitation 0.00 in - - ()
Sea Level Pressure  
Sea Level Pressure 30.15 in    
Wind  
Wind Speed 14 mph (NW)    
Max Wind Speed 23 mph    
Max Gust Speed 33 mph    
Visibility 10 miles    
Events      
Averages and records for this station are not official NWS values.
T = Trace of Precipitation, MM = Missing Value Source: NWS Daily Summary

Daily Weather History Graph

Daily Weather History Graph

Search for Another Location

Airport or City:

Trip Planner

Search our weather history database for the weather conditions in past years. The results will help you decide how hot, cold, wet, or windy it might be!

Date:

Astronomy

Jan. 22, 2013 Rise Set
Actual Time 7:16 AM EST 5:15 PM EST
Civil Twilight 6:48 AM EST 5:43 PM EST
Nautical Twilight 6:16 AM EST 6:15 PM EST
Astronomical Twilight 5:44 AM EST 6:47 PM EST
Moon 1:36 PM EST (1/22) 3:35 AM EST (1/22)
Length of Visible Light 10h 55m
Length of Day
9h 58m
Waxing Gibbous, 82% of the Moon is Illuminated
Jan 22
Waxing Gibbous
Jan 26
Full
Feb 3
Last Quarter
Feb 10
New
Feb 17
First Quarter

Hourly Weather History & Observations

Time (EST) Temp. Windchill Dew Point Humidity Pressure Visibility Wind Dir Wind Speed Gust Speed Precip Events Conditions
12:02 AM 35.6 °F 27.1 °F 21.2 °F 56% 29.91 in 10.0 mi NNW 12.7 mph 24.2 mph N/A   Clear
12:24 AM 32.0 °F 22.1 °F 17.6 °F 55% 29.91 in 10.0 mi NW 13.8 mph 23.0 mph N/A   Clear
12:45 AM 32.0 °F 20.8 °F 17.6 °F 55% 29.90 in 10.0 mi NNW 17.3 mph 20.7 mph N/A   Clear
1:06 AM 32.0 °F 21.6 °F 19.4 °F 60% 29.92 in 10.0 mi NW 15.0 mph 24.2 mph N/A   Clear
1:28 AM 32.0 °F 23.0 °F 17.6 °F 55% 29.93 in 10.0 mi WNW 11.5 mph 27.6 mph N/A   Clear
1:49 AM 32.0 °F 21.6 °F 17.6 °F 55% 29.95 in 10.0 mi NW 15.0 mph 24.2 mph N/A   Clear
2:10 AM 32.0 °F 22.1 °F 17.6 °F 55% 29.96 in 10.0 mi NW 13.8 mph 25.3 mph N/A   Scattered Clouds
2:53 AM 32.0 °F 20.5 °F 15.8 °F 51% 29.98 in 10.0 mi NNW 18.4 mph 27.6 mph N/A   Scattered Clouds
3:14 AM 32.0 °F 20.8 °F 15.8 °F 51% 29.99 in 10.0 mi NW 17.3 mph 26.5 mph N/A   Clear
3:36 AM 32.0 °F 20.8 °F 17.6 °F 55% 30.00 in 10.0 mi NW 17.3 mph 29.9 mph N/A   Clear
3:57 AM 28.4 °F 17.0 °F 12.2 °F 51% 30.01 in 10.0 mi WNW 15.0 mph 28.8 mph N/A   Clear
4:18 AM 28.4 °F 14.7 °F 12.2 °F 51% 30.02 in 10.0 mi NW 21.9 mph 28.8 mph N/A   Clear
4:40 AM 28.4 °F 18.5 °F 14.0 °F 55% 30.03 in 10.0 mi NW 11.5 mph 21.9 mph N/A   Clear
5:01 AM 28.4 °F 15.4 °F 12.2 °F 51% 30.03 in 10.0 mi NW 19.6 mph 27.6 mph N/A   Clear
5:22 AM 28.4 °F 17.0 °F 10.4 °F 47% 30.05 in 10.0 mi NW 15.0 mph 31.1 mph N/A   Clear
5:44 AM 26.6 °F 12.0 °F 8.6 °F 47% 30.05 in 10.0 mi NW 23.0 mph 31.1 mph N/A   Clear
6:05 AM 26.6 °F 12.0 °F 10.4 °F 51% 30.05 in 10.0 mi NW 23.0 mph 33.4 mph N/A   Clear
6:26 AM 26.6 °F 13.8 °F 8.6 °F 47% 30.08 in 10.0 mi NW 17.3 mph 33.4 mph N/A   Clear
7:52 AM 23.0 °F 8.7 °F 5.0 °F 46% 30.14 in 10.0 mi WNW 18.4 mph 27.6 mph N/A   Clear
8:13 AM 24.8 °F 14.0 °F 5.0 °F 43% 30.15 in 10.0 mi WNW 11.5 mph 28.8 mph N/A   Clear
8:34 AM 23.0 °F 10.1 °F 5.0 °F 46% 30.16 in 10.0 mi WNW 15.0 mph 23.0 mph N/A   Clear
8:54 AM 24.8 °F 11.1 °F 3.2 °F 40% 30.18 in 10.0 mi WNW 18.4 mph 26.5 mph N/A   Clear
9:17 AM 24.8 °F 13.4 °F 3.2 °F 40% 30.19 in 10.0 mi WNW 12.7 mph 25.3 mph N/A   Clear
9:38 AM 24.8 °F 11.1 °F 3.2 °F 40% 30.20 in 10.0 mi WNW 18.4 mph 27.6 mph N/A   Clear
9:59 AM 24.8 °F 12.4 °F 3.2 °F 40% 30.20 in 10.0 mi WNW 15.0 mph 23.0 mph N/A   Scattered Clouds
10:21 AM 24.8 °F 13.4 °F 5.0 °F 43% 30.21 in 10.0 mi WNW 12.7 mph 23.0 mph N/A   Scattered Clouds
10:42 AM 23.0 °F 12.4 °F 5.0 °F 46% 30.21 in 10.0 mi NW 10.4 mph - N/A   Mostly Cloudy
11:03 AM 23.0 °F 10.6 °F 5.0 °F 46% 30.21 in 10.0 mi NW 13.8 mph 19.6 mph N/A   Scattered Clouds
11:24 AM 23.0 °F 10.1 °F 5.0 °F 46% 30.21 in 10.0 mi NW 15.0 mph 20.7 mph N/A   Scattered Clouds
11:46 AM 23.0 °F 10.1 °F 5.0 °F 46% 30.20 in 10.0 mi NW 15.0 mph 21.9 mph N/A   Scattered Clouds
12:07 PM 24.8 °F 13.4 °F 3.2 °F 40% 30.19 in 10.0 mi WNW 12.7 mph 24.2 mph N/A   Clear
12:28 PM 24.8 °F 12.4 °F 3.2 °F 40% 30.18 in 10.0 mi NW 15.0 mph 26.5 mph N/A   Clear
12:50 PM 26.6 °F 13.8 °F 5.0 °F 40% 30.17 in 10.0 mi NW 17.3 mph 20.7 mph N/A   Clear
1:11 PM 24.8 °F 11.9 °F 3.2 °F 40% 30.17 in 10.0 mi WNW 16.1 mph 23.0 mph N/A   Clear
1:32 PM 26.6 °F 14.7 °F 3.2 °F 37% 30.16 in 10.0 mi WNW 15.0 mph 25.3 mph N/A   Scattered Clouds
1:52 PM 26.6 °F 14.7 °F 5.0 °F 40% 30.16 in 10.0 mi West 15.0 mph 23.0 mph N/A   Clear
2:15 PM 26.6 °F 14.7 °F 5.0 °F 40% 30.17 in 10.0 mi WNW 15.0 mph 24.2 mph N/A   Clear
2:36 PM 26.6 °F 16.2 °F 3.2 °F 37% 30.17 in 10.0 mi WNW 11.5 mph 23.0 mph N/A   Clear
2:57 PM 26.6 °F 17.5 °F 3.2 °F 37% 30.17 in 10.0 mi WNW 9.2 mph 20.7 mph N/A   Clear
3:18 PM 26.6 °F 16.2 °F 3.2 °F 37% 30.18 in 10.0 mi WNW 11.5 mph 18.4 mph N/A   Clear
3:40 PM 26.6 °F 15.2 °F 3.2 °F 37% 30.18 in 10.0 mi WNW 13.8 mph 21.9 mph N/A   Clear
4:01 PM 26.6 °F 16.2 °F 3.2 °F 37% 30.18 in 10.0 mi WNW 11.5 mph 21.9 mph N/A   Clear
4:22 PM 26.6 °F 15.2 °F 3.2 °F 37% 30.18 in 10.0 mi WNW 13.8 mph 24.2 mph N/A   Clear
4:44 PM 26.6 °F 14.3 °F 1.4 °F 34% 30.19 in 10.0 mi West 16.1 mph 20.7 mph N/A   Clear
5:05 PM 24.8 °F 15.3 °F 1.4 °F 36% 30.20 in 10.0 mi WNW 9.2 mph - N/A   Clear
5:26 PM 24.8 °F 15.3 °F 1.4 °F 36% 30.21 in 10.0 mi WNW 9.2 mph 16.1 mph N/A   Clear
5:48 PM 24.8 °F 13.4 °F 3.2 °F 40% 30.21 in 10.0 mi WNW 12.7 mph 19.6 mph N/A   Clear
6:09 PM 24.8 °F 13.4 °F 3.2 °F 40% 30.22 in 10.0 mi NW 12.7 mph 18.4 mph N/A   Clear
6:30 PM 24.8 °F 12.4 °F 3.2 °F 40% 30.23 in 10.0 mi WNW 15.0 mph 25.3 mph N/A   Clear
6:51 PM 24.8 °F 12.9 °F 3.2 °F 40% 30.24 in 10.0 mi WNW 13.8 mph 19.6 mph N/A   Clear
7:13 PM 24.8 °F 16.1 °F 3.2 °F 40% 30.25 in 10.0 mi NW 8.1 mph 17.3 mph N/A   Clear
7:34 PM 23.0 °F 11.7 °F 3.2 °F 43% 30.25 in 10.0 mi NW 11.5 mph 17.3 mph N/A   Clear
7:55 PM 23.0 °F 12.4 °F 3.2 °F 43% 30.25 in 10.0 mi NW 10.4 mph - N/A   Clear
8:17 PM 23.0 °F 13.9 °F 5.0 °F 46% 30.25 in 10.0 mi NW 8.1 mph 18.4 mph N/A   Clear
8:38 PM 23.0 °F 13.9 °F 5.0 °F 46% 30.26 in 10.0 mi NNW 8.1 mph - N/A   Clear
8:59 PM 23.0 °F 10.6 °F 5.0 °F 46% 30.26 in 10.0 mi NNW 13.8 mph 19.6 mph N/A   Clear
9:21 PM 23.0 °F 12.4 °F 5.0 °F 46% 30.26 in 10.0 mi NW 10.4 mph - N/A   Clear
9:42 PM 23.0 °F 13.1 °F 5.0 °F 46% 30.27 in 10.0 mi NW 9.2 mph 20.7 mph N/A   Clear
10:03 PM 23.0 °F 10.6 °F 5.0 °F 46% 30.28 in 10.0 mi NW 13.8 mph 20.7 mph N/A   Clear
10:25 PM 23.0 °F 11.1 °F 5.0 °F 46% 30.28 in 10.0 mi NNW 12.7 mph 23.0 mph N/A   Clear
11:07 PM 23.0 °F 11.1 °F 5.0 °F 46% 30.29 in 10.0 mi NW 12.7 mph 21.9 mph N/A   Clear
11:29 PM 23.0 °F 9.6 °F 5.0 °F 46% 30.29 in 10.0 mi NW 16.1 mph 26.5 mph N/A   Clear
11:50 PM 23.0 °F 10.1 °F 5.0 °F 46% 30.29 in 10.0 mi NW 15.0 mph 21.9 mph N/A   Clear